This is the latest recevied weather packets stored in our database for station/object KD4EG. If no packets are shown the sender has not sent any weather packets the latest 1 day(s).
| Time | Temp. | Humidity | Pressure | Rain* | Wind** | Luminosity | Snow |
|---|---|---|---|---|---|---|---|
| 1778038927 | 16.67° C | 63% | 1014.4 hPa | 0 mm | - | 0 W/m² | - |
| 1778038624 | 16.67° C | 63% | 1014 hPa | 0 mm | - | 0 W/m² | - |
| 1778038321 | 16.67° C | 63% | 1014.3 hPa | 0 mm | - | 0 W/m² | - |
| 1778038018 | 17.22° C | 63% | 1014.3 hPa | 0 mm | - | 0 W/m² | - |
| 1778037715 | 17.22° C | 61% | 1014.1 hPa | 0 mm | - | 0 W/m² | - |
| 1778037108 | 17.22° C | 62% | 1014.4 hPa | 0 mm | - | 0 W/m² | - |
| 1778036807 | 17.22° C | 61% | 1014.6 hPa | 0 mm | - | 0 W/m² | - |
| 1778036504 | 17.78° C | 61% | 1014.5 hPa | 0 mm | - | 0 W/m² | - |
| 1778036201 | 17.78° C | 59% | 1014.6 hPa | 0 mm | - | 0 W/m² | - |
| 1778035290 | 17.78° C | 59% | 1014.5 hPa | 0 mm | - | 0 W/m² | - |
| 1778034987 | 18.33° C | 59% | 1014.6 hPa | 0 mm | - | 0 W/m² | - |
| 1778034684 | 18.33° C | 59% | 1014.6 hPa | 0 mm | - | 0 W/m² | - |
| 1778034381 | 18.33° C | 58% | 1014.5 hPa | 0 mm | - | 0 W/m² | - |
| 1778034079 | 18.89° C | 56% | 1014.7 hPa | 0 mm | - | 0 W/m² | - |
| 1778033474 | 18.89° C | 54% | 1014.9 hPa | 0 mm | - | 0 W/m² | - |
| 1778033170 | 18.89° C | 56% | 1014.9 hPa | 0 mm | - | 0 W/m² | - |
| 1778032262 | 18.89° C | 56% | 1014.6 hPa | 0 mm | - | 0 W/m² | - |
| 1778031960 | 18.89° C | 54% | 1014.6 hPa | 0 mm | - | 0 W/m² | - |
| 1778031655 | 18.89° C | 57% | 1014.7 hPa | 0 mm | - | 0 W/m² | - |
| 1778031354 | 19.44° C | 55% | 1014.6 hPa | 0 mm | - | 0 W/m² | - |
| 1778031050 | 18.89° C | 54% | 1014.7 hPa | 0 mm | - | 0 W/m² | - |
| 1778030746 | 18.89° C | 55% | 1014.7 hPa | 0 mm | - | 0 W/m² | - |
| 1778030443 | 19.44° C | 54% | 1014.5 hPa | 0 mm | - | 0 W/m² | - |
| 1778030141 | 20° C | 53% | 1014.5 hPa | 0 mm | - | 0 W/m² | - |
| 1778029531 | 20° C | 52% | 1014.4 hPa | 0 mm | - | 0 W/m² | - |
* Rain latest hour (hover to see other rain measurements)
** Current wind speed in m/s (hover to see current wind gust speed)